Dewpoint
9 9 10 10 10 9 9 9 8 8 6 3 2 2 3 4 4 5 5 6 6 6 7 6 7 6 5 6 4 1 3 4 4 1 -3 -5 -7 -8 -7 -8 -9 -10 -10 -11 -9 -10 -9
8 8 9 9 10 10 9 9 9 9 9 8 7 6 6 6 6 6 6 6 6 6 7 7 7 7 7 8 0 5 4 4 2 0 -1 -4 -8 -9 -10 -9 -8 -10 -9 -9 -11 -10 -10
7 7 7 7 8 8 9 10 10 10 9 9 9 9 8 8 8 8 8 7 8 7 7 7 7 7 8 5 1 2 5 4 3 1 -2 -5 -7 -9 -9 -7 -8 -9 -9 -11 -11 -12 -10
2 4 5 5 6 7 6 7 7 9 9 9 9 9 9 9 9 8 8 9 8 8 8 7 8 8 9 5 4 5 5 5 5 1 -2 -4 -6 -8 -8 -9 -8 -8 -9 -8 -11 -12 -10
2 2 -1 -0 1 1 4 6 6 6 7 7 8 8 9 9 9 9 9 9 8 8 7 8 8 9 9 6 6 4 5 5 5 4 3 -0 -7 -7 -6 -5 -5 -7 -8 -8 -10 -12 -10
1 1 3 2 1 -1 -1 1 3 4 5 5 6 6 6 6 7 7 8 9 9 8 8 9 8 8 7 5 5 5 4 4 4 4 3 -2 -6 -3 -4 -4 -2 -5 -6 -8 -8 -10 -9
3 2 1 3 3 1 2 1 1 1 1 0 2 5 5 5 5 6 7 7 7 7 7 7 7 7 5 5 5 4 1 -2 2 4 3 -3 -2 -0 -2 -3 -5 -6 -8 -9 -11 -9 -9
-2 -0 2 2 2 2 2 3 2 2 2 1 -0 3 4 3 4 5 5 6 7 6 6 6 7 8 8 5 6 5 3 -0 2 6 2 1 0 -2 -3 -4 -5 -7 -7 -7 -8 -9 -8
-2 -3 -2 2 1 1 1 2 2 2 0 -0 0 -1 2 2 3 4 5 4 4 4 6 6 5 5 6 7 7 7 3 0 3 4 2 1 -0 -2 -2 -3 -5 -5 -5 -6 -6 -9 -9
-2 -2 -3 -0 1 0 -1 1 2 1 1 -0 3 5 5 5 3 3 4 4 4 5 6 5 5 4 5 6 6 6 5 0 2 2 1 0 -2 -2 -4 -4 -5 -4 -6 -7 -7 -7 -5
-2 -1 -1 -1 -0 -0 0 -1 1 1 1 1 3 2 2 3 2 2 2 3 5 4 7 1 2 3 4 6 5 6 5 5 4 2 1 2 1 1 1 -2 -2 -1 -2 -5 -6 -5 -4
-2 -2 -1 -1 -1 -1 -1 -2 -0 1 1 1 2 4 3 2 2 3 5 4 3 5 6 1 0 1 4 5 5 2 5 5 5 5 5 2 -0 0 -0 -1 -1 -2 -5 -5 -4 -4 -0
-2 -3 -3 -2 -2 -1 -1 -1 -2 0 1 0 1 2 3 1 1 2 5 5 4 6 -1 -1 1 1 2 4 6 5 0 5 7 8 9 6 5 3 -1 -2 -5 -6 -3 0 0 -0 1
-6 -4 -3 -3 -3 -3 -3 -1 -1 -0 0 1 1 2 2 1 -1 3 5 4 6 1 -1 -5 -5 -3 -1 -1 2 4 2 1 -0 5 6 9 10 5 -0 -3 -2 -4 -2 1 1 3 1
-5 -5 -5 -6 -6 -5 -3 -6 -2 -0 1 1 1 1 2 1 -1 1 4 5 3 -1 -3 -3 -0 -2 -3 -3 -1 2 4 4 -1 0 6 7 5 -1 -1 -3 -4 -1 -2 -4 -1 -1 1
-2 -4 -4 -5 -6 -6 -6 -5 -7 -2 0 1 2 2 1 -1 -0 1 3 5 3 -2 -5 -4 2 -0 -1 -2 -1 1 1 -1 -1 -2 1 6 6 -2 -5 -2 -3 -4 -4 -1 1 2 3
-4 -4 -4 -5 -5 -5 -7 -7 -4 -3 -1 1 2 2 2 0 1 2 3 4 2 -1 -3 -3 -2 -1 -3 -4 -2 3 0 -2 -2 -3 -2 1 4 1 -4 -3 -1 -2 -2 -2 0 -0 1
-6 -7 -7 -6 -6 -6 -6 -7 -8 -6 -3 0 0 2 1 1 2 2 2 4 1 -1 -2 -3 -3 -1 -2 -1 -2 1 2 -0 -3 -2 -0 0 2 3 -2 -5 -6 -4 -3 -1 2 -1 1
-8 -8 -7 -8 -7 -8 -8 -8 -7 -5 -5 -1 0 0 1 1 2 1 1 1 1 1 -0 -2 -0 0 -1 0 -0 -2 -2 -1 -4 -2 0 -1 2 3 -0 -3 -6 -6 -5 -2 0 0 -1
-7 -6 -6 -7 -8 -9 -10 -10 -11 -10 -8 -2 -0 0 1 3 1 -2 -0 1 2 0 1 -2 -1 0 1 1 0 -1 0 -1 -3 -2 -6 -2 -0 2 2 0 -1 -3 -4 -4 -1 3 -0
-8 -9 -7 -6 -8 -8 -9 -9 -10 -10 -10 -4 -1 -1 1 2 2 -0 -2 -1 1 1 -0 -2 -1 -1 0 3 1 0 1 -1 -3 -3 -5 -1 0 2 1 -1 -1 -0 0 0 1 0 0
-5 -6 -7 -8 -9 -8 -8 -8 -9 -10 -8 -2 -1 -1 -0 1 2 1 -1 0 -1 -1 -0 -0 -1 -1 0 2 2 3 3 2 -0 -3 -2 -1 3 2 2 -0 -0 0 0 -0 1 1 1
-2 -2 -4 -6 -7 -8 -8 -8 -8 -9 -6 -2 -1 -1 -0 1 2 2 1 -1 -1 -1 -1 -2 -2 -1 1 1 2 1 1 3 3 3 2 3 3 3 3 0 2 4 1 0 -0 -1 -1
-2 -2 -2 -3 -5 -7 -8 -8 -7 -8 -7 -3 -2 -2 -0 0 2 2 -0 -1 -1 -2 -0 -0 -1 -1 -3 -0 2 2 2 3 3 2 2 3 4 4 4 1 4 0 -0 -1 -0 -2 -3
-2 -1 -2 -3 -4 -6 -7 -8 -7 -7 -6 -4 -2 -1 -1 1 -1 0 2 -1 -2 -3 -1 -1 -1 2 1 2 3 4 4 4 4 3 3 2 2 4 5 5 1 -1 -2 -1 1 -0 -2
-2 -2 -2 -2 -4 -6 -7 -7 -7 -7 -6 -4 -3 -2 -1 -1 0 -1 0 1 -1 -1 -1 -2 1 2 3 3 3 4 4 4 5 4 2 3 2 2 5 5 5 -1 -4 -6 -3 -0 -4
-2 -2 -2 -2 -4 -5 -7 -7 -7 -7 -7 -6 -5 -3 -2 -2 -3 -1 1 2 -1 -2 -1 -1 3 3 3 2 4 4 4 2 4 4 4 4 4 5 4 4 3 -2 -7 -6 -1 -1 -5
-2 -2 -2 -3 -5 -5 -6 -7 -7 -7 -5 -4 -2 -3 -2 -2 -3 -0 1 1 1 0 -0 -1 2 2 3 3 3 4 4 2 1 1 3 4 5 5 4 5 4 -5 -7 -2 -2 -3 -6
-1 -2 -3 -4 -5 -6 -7 -7 -7 -6 -5 -4 -3 -4 -3 -1 -2 -4 2 1 -0 -0 2 -1 0 1 1 2 2 1 2 1 0 1 -2 2 -0 2 1 1 -3 -3 -2 -3 -2 -3 -4
Wind_Speed
26 27 29 31 35 32 30 27 25 25 24 24 23 22 22 22 21 22 22 22 22 21 22 22 23 24 22 9 21 19 17 18 17 8 6 10 13 15 6 8 11 2 6 3 8 5 3
24 20 23 28 32 36 37 32 30 28 26 25 24 24 23 23 23 23 23 23 23 22 22 22 22 22 18 10 12 10 17 18 8 4 11 14 9 10 8 8 5 6 8 10 5 10 9
23 21 18 13 14 17 28 32 33 34 33 30 28 28 27 26 24 24 24 24 23 22 22 21 21 23 21 30 21 18 14 15 11 10 12 8 11 7 11 7 11 4 6 8 12 12 6
29 30 27 22 22 18 11 8 11 23 30 34 33 32 30 29 28 25 24 25 24 23 22 21 21 21 16 27 29 21 16 20 18 11 11 9 7 10 11 9 8 4 3 4 9 15 7
15 17 22 25 28 27 29 27 23 15 10 10 14 19 25 25 30 30 28 30 26 25 24 19 19 13 17 10 16 13 20 21 17 16 14 10 6 9 10 3 4 4 6 8 12 18 7
12 12 12 14 18 23 24 24 28 30 26 22 20 16 12 12 9 15 21 26 26 25 23 19 20 12 20 19 18 15 10 15 19 15 13 12 6 3 2 2 6 7 9 7 5 7 6
15 14 14 14 13 11 13 15 17 18 20 25 27 22 21 17 15 12 12 7 7 7 15 15 11 14 20 9 7 8 11 9 13 16 8 12 3 7 12 11 12 11 3 5 2 2 4
18 18 17 17 16 14 14 13 13 14 16 17 19 19 16 12 12 12 6 3 6 7 12 18 26 35 32 23 13 17 16 13 15 13 8 8 13 11 16 14 7 5 3 6 5 7 6
23 22 21 20 19 17 15 14 14 12 11 17 12 15 20 20 16 15 11 9 10 13 8 9 24 29 33 33 30 28 21 22 9 11 12 13 11 18 17 11 3 5 4 5 7 6 2
19 20 22 22 20 19 19 17 14 13 9 7 10 9 20 17 10 15 19 15 6 5 4 6 10 14 28 32 21 35 27 20 9 13 15 12 20 16 3 6 4 6 6 6 7 6 5
21 21 20 20 20 21 20 18 18 15 12 9 12 14 15 18 6 9 2 12 9 9 4 1 8 5 5 29 10 28 42 31 17 16 7 8 7 9 8 8 9 6 8 2 4 4 3
24 25 24 22 21 21 20 21 19 18 16 14 14 14 17 16 18 11 4 15 11 4 8 6 5 5 8 29 24 4 30 36 27 17 18 17 18 8 4 6 4 2 3 2 3 2 5
26 26 27 26 25 23 21 20 21 20 20 18 16 15 18 14 23 14 12 19 3 4 5 6 5 8 9 9 19 19 5 18 16 16 22 19 22 17 11 3 1 4 6 1 2 1 7
22 24 24 26 27 27 26 22 20 21 22 21 20 18 21 22 22 18 17 4 5 12 10 9 3 9 11 7 10 18 15 9 9 17 3 14 14 18 8 9 6 7 7 5 5 4 3
24 24 23 24 23 26 27 28 25 22 21 24 22 23 26 24 21 26 14 8 10 8 9 5 7 6 8 9 6 13 15 11 10 15 18 3 7 6 16 5 15 5 11 9 6 2 0
26 26 24 24 24 23 22 25 27 26 24 24 25 27 34 26 24 22 6 7 8 15 11 2 8 7 3 6 11 11 11 8 16 16 12 7 4 4 3 6 14 6 3 6 1 4 5
30 28 29 27 26 25 24 23 23 25 27 25 24 17 31 31 23 14 8 10 13 18 22 6 5 7 10 11 2 5 4 9 8 11 14 14 11 4 4 2 9 5 10 3 5 5 4
32 31 31 31 31 29 27 25 26 25 25 26 30 6 16 23 16 6 9 7 10 13 20 9 2 6 13 10 12 13 11 15 12 8 5 10 6 8 7 5 3 5 6 6 4 4 3
36 36 35 34 34 33 32 31 28 26 25 27 10 10 19 39 10 13 15 23 10 10 18 5 5 3 3 6 4 6 14 3 0 7 6 3 3 4 2 4 2 2 2 6 4 3 6
39 37 36 34 33 32 32 31 32 32 27 28 9 2 12 30 33 19 22 25 25 18 18 16 5 8 6 7 9 5 2 4 11 5 2 5 2 6 7 4 5 5 5 3 5 4 4
42 43 40 38 35 34 33 32 31 29 27 27 13 6 7 6 12 17 24 18 26 23 23 12 6 11 9 5 6 2 4 2 4 6 3 2 1 3 2 5 2 4 5 5 5 5 6
47 46 42 42 40 36 34 33 31 29 27 30 8 4 6 4 11 23 20 24 20 26 19 18 16 13 8 12 7 1 5 2 2 2 1 0 4 3 3 5 5 3 10 7 6 5 5
46 47 46 43 40 38 37 33 33 30 27 24 28 25 6 5 7 12 18 29 31 21 13 25 22 13 13 16 2 6 8 11 4 1 1 2 4 2 4 5 4 4 7 5 4 7 5
41 41 49 45 41 38 37 36 33 29 30 33 22 15 10 9 4 8 20 22 23 23 19 9 14 18 28 15 12 10 9 8 11 5 2 3 3 2 2 4 9 9 8 16 20 18 14
36 41 45 45 42 38 36 36 33 29 30 32 32 27 12 3 9 12 11 19 27 20 16 19 18 10 5 18 4 4 1 1 7 7 10 5 4 2 2 5 6 9 7 10 9 13 13
37 37 39 42 41 38 35 34 31 28 27 29 31 27 15 4 7 15 13 15 13 14 8 13 7 4 11 1 3 6 5 5 5 6 13 9 3 5 4 5 7 5 14 19 6 11 8
36 34 37 40 39 36 34 32 28 26 27 29 28 28 17 8 29 21 6 4 15 13 9 5 9 6 18 2 3 2 4 6 5 6 6 9 7 13 7 3 6 6 1 8 5 7 9
32 30 32 36 37 34 32 29 27 26 26 26 28 23 28 15 24 15 10 13 8 2 6 10 8 3 2 3 3 1 2 6 4 3 7 9 6 4 5 5 7 9 5 9 8 12 15
29 29 32 35 34 33 31 27 26 26 26 24 22 27 29 14 12 29 7 7 8 5 15 18 9 6 8 3 1 1 3 1 5 3 4 3 6 5 7 6 6 2 3 8 14 14 10
Wind_Direction
265 261 263 261 253 252 250 250 250 253 253 253 253 255 258 261 265 270 274 278 283 288 293 301 309 313 316 310 273 303 286 296 294 305 302 295 299 299 282 320 326 155 279 265 126 146 252
252 252 252 248 250 250 252 249 253 252 253 254 254 254 255 258 262 266 271 274 277 282 289 298 306 308 309 271 304 292 291 299 294 280 274 283 286 323 299 294 310 13 349 315 291 192 215
258 255 247 255 244 240 236 240 247 248 247 246 250 253 254 256 259 264 270 275 277 282 287 296 304 304 291 267 285 252 262 289 266 273 265 317 265 304 316 315 336 359 330 311 271 251 214
264 263 263 265 264 259 257 238 227 240 241 237 246 248 252 259 259 262 268 270 278 285 287 295 298 296 272 291 291 251 240 266 262 242 251 272 285 282 273 287 331 287 294 260 255 216 186
265 273 273 274 277 274 273 266 269 273 237 242 250 244 243 241 247 252 255 264 273 282 282 287 293 297 278 321 271 260 240 240 245 245 247 261 272 252 274 221 338 245 236 227 263 210 150
259 265 271 270 274 280 282 275 276 271 271 279 282 282 308 309 278 261 251 257 268 279 281 279 271 275 262 271 253 252 234 234 241 238 229 237 250 242 288 153 215 220 225 268 228 184 142
257 254 250 255 262 271 269 278 294 296 296 281 280 278 284 296 311 320 288 266 260 258 225 211 217 218 274 315 263 212 215 224 236 236 193 217 189 216 223 224 235 255 266 284 311 123 112
260 260 258 255 256 263 257 264 275 287 296 298 274 270 276 286 287 299 353 9 345 314 291 255 249 247 248 251 283 265 220 206 223 228 195 233 237 228 238 242 243 224 258 284 295 184 154
264 266 264 257 254 257 259 255 263 273 292 292 273 258 258 270 274 263 259 307 319 323 278 253 251 250 241 236 247 254 225 208 219 219 225 216 238 220 235 245 194 256 225 257 267 294 159
266 265 262 260 255 255 255 256 252 256 261 265 236 248 213 209 222 252 259 270 287 323 288 266 223 255 219 219 250 231 224 206 221 226 224 245 238 254 170 229 209 223 242 255 264 250 240
269 263 260 260 260 254 254 256 255 250 251 237 233 231 234 244 239 229 273 202 168 128 300 215 199 210 228 187 143 213 213 226 220 228 221 234 211 245 237 192 220 240 264 282 298 309 339
267 263 263 260 256 256 254 254 253 248 244 239 236 228 213 221 221 210 180 181 121 103 236 288 137 189 146 201 233 7 204 219 234 244 252 249 258 260 291 223 213 202 112 342 333 45 275
259 261 259 263 262 255 251 251 251 246 244 241 235 231 221 221 230 208 202 170 98 192 256 238 187 175 205 197 220 232 177 201 211 221 235 241 248 257 254 227 98 106 103 331 321 239 239
252 254 255 254 257 260 254 249 249 248 241 238 237 227 230 230 229 222 213 176 194 198 218 5 280 189 197 218 215 216 213 208 232 235 276 222 242 224 234 177 174 179 158 166 215 201 275
253 255 254 256 257 258 257 252 243 246 242 238 233 231 234 230 232 230 244 215 198 197 197 237 11 315 204 211 224 208 225 232 233 226 223 232 248 194 223 168 176 196 218 209 263 336 277
256 254 255 255 255 256 258 258 251 239 242 238 227 230 235 225 227 237 241 230 249 221 230 33 157 255 284 203 206 183 204 208 231 249 206 186 309 288 20 160 192 162 166 190 108 202 221
251 252 251 254 253 254 255 256 249 242 237 243 240 229 236 222 217 218 223 226 245 238 230 238 159 247 269 283 214 290 251 236 227 219 224 214 211 295 95 222 168 163 219 181 157 159 179
254 255 253 253 253 252 252 255 251 247 238 242 238 228 223 197 193 221 215 204 246 236 238 256 228 237 242 273 265 185 256 268 9 342 248 191 175 206 198 194 250 197 190 145 130 244 213
256 253 252 254 252 253 254 253 252 249 236 236 240 231 192 194 198 213 225 234 255 238 230 236 183 233 322 305 316 215 205 280 197 49 329 99 336 107 110 26 23 269 186 189 147 117 229
254 253 250 251 251 251 250 253 250 248 244 234 250 236 206 207 201 199 205 222 229 234 254 244 202 224 296 306 282 263 67 45 339 109 342 349 159 158 205 208 170 189 194 209 174 185 216
252 250 250 248 249 249 249 250 251 246 241 228 225 226 202 190 196 211 202 220 222 231 225 235 247 224 212 245 295 206 85 64 360 3 333 112 223 85 71 167 175 164 185 223 228 228 210
253 250 246 246 245 244 244 244 246 245 236 230 249 204 212 248 198 205 208 215 219 223 225 212 225 229 214 235 228 244 142 141 128 132 285 126 190 109 313 224 198 229 239 204 228 251 230
250 248 245 241 240 239 239 240 242 239 227 230 237 242 274 226 202 201 206 215 215 221 229 231 210 224 211 221 177 225 161 137 135 57 100 55 126 101 230 170 75 317 220 250 245 233 211
248 249 241 238 235 234 235 236 238 234 227 224 227 210 242 223 202 227 209 225 218 216 225 244 252 214 229 189 141 166 167 174 187 204 245 122 92 75 220 116 235 240 177 208 225 237 243
248 248 241 229 229 228 231 230 234 229 225 225 231 235 263 313 238 248 264 232 227 232 230 236 237 263 166 165 122 139 132 307 217 191 195 202 137 133 157 242 299 292 235 212 195 246 223
248 234 240 225 221 222 225 226 229 225 223 225 228 235 232 275 263 255 225 254 218 212 230 234 239 205 179 246 140 189 166 154 188 204 197 197 199 174 169 202 207 243 223 226 161 247 213
243 224 226 218 212 216 221 222 225 221 221 223 226 227 220 229 261 280 213 212 248 185 210 192 140 152 199 149 204 172 185 145 175 190 165 187 196 204 193 229 281 257 218 118 137 237 131
231 217 214 207 207 212 215 216 216 214 213 212 220 215 206 216 252 273 280 180 242 147 191 175 114 141 112 148 174 70 244 189 146 217 161 178 181 189 202 187 244 232 258 180 199 149 135
214 203 200 200 204 208 210 213 212 210 210 213 215 212 213 217 251 235 196 138 199 29 282 167 142 129 158 115 142 193 234 146 159 216 159 207 177 180 176 212 221 31 45 124 158 146 151
Height
1512 1513 1515 1515 1517 1518 1520 1523 1523 1525 1527 1528 1528 1529 1529 1531 1531 1532 1532 1531 1531 1530 1530 1528 1526 1524 1522 1521 1515 1513 1512 1511 1512 1510 1509 1510 1507 1505 1506 1499 1497 1495 1495 1495 1498 1501 1504
1507 1507 1508 1509 1511 1511 1514 1517 1519 1521 1522 1524 1524 1525 1525 1526 1527 1527 1528 1528 1528 1526 1527 1526 1523 1522 1522 1519 1511 1512 1510 1510 1509 1508 1508 1509 1507 1505 1502 1499 1498 1495 1496 1496 1496 1499 1501
1501 1503 1503 1505 1505 1506 1507 1509 1512 1514 1516 1517 1520 1520 1521 1522 1522 1523 1524 1524 1523 1523 1523 1521 1521 1519 1516 1509 1510 1509 1508 1507 1508 1506 1506 1507 1505 1506 1502 1499 1497 1494 1499 1497 1494 1496 1497
1493 1496 1498 1500 1502 1503 1504 1504 1505 1506 1509 1510 1513 1514 1515 1517 1518 1518 1520 1520 1520 1519 1518 1517 1518 1518 1506 1502 1503 1501 1502 1504 1506 1503 1504 1505 1504 1504 1503 1499 1497 1498 1500 1510 1490 1491 1495
1489 1490 1491 1493 1496 1498 1499 1500 1501 1503 1503 1504 1507 1506 1508 1510 1511 1512 1514 1516 1515 1515 1514 1513 1515 1516 1504 1496 1497 1493 1498 1499 1503 1501 1504 1504 1502 1503 1501 1502 1508 1500 1512 1504 1493 1481 1491
1488 1488 1489 1490 1492 1492 1493 1495 1496 1498 1500 1501 1504 1505 1505 1507 1506 1508 1508 1510 1510 1510 1510 1510 1510 1517 1500 1491 1493 1494 1495 1497 1498 1497 1502 1503 1502 1500 1501 1508 1518 1506 1503 1499 1498 1486 1488
1485 1486 1487 1488 1489 1489 1489 1489 1492 1491 1491 1496 1501 1502 1502 1506 1506 1506 1506 1507 1509 1507 1502 1497 1496 1496 1491 1491 1492 1493 1493 1494 1496 1495 1498 1499 1505 1504 1499 1496 1490 1491 1489 1492 1487 1482 1488
1482 1483 1484 1485 1485 1486 1486 1487 1488 1488 1489 1489 1493 1497 1499 1501 1502 1508 1506 1506 1505 1506 1497 1491 1489 1489 1488 1491 1492 1490 1491 1492 1493 1492 1493 1498 1498 1489 1487 1485 1487 1486 1490 1494 1486 1483 1487
1477 1479 1480 1481 1481 1482 1483 1483 1485 1486 1485 1488 1489 1490 1494 1493 1497 1505 1503 1504 1504 1505 1500 1483 1483 1477 1477 1487 1484 1485 1487 1486 1486 1490 1490 1493 1484 1481 1480 1482 1484 1487 1492 1493 1492 1482 1482
1472 1472 1474 1476 1477 1478 1480 1481 1481 1484 1485 1485 1487 1488 1489 1490 1495 1499 1500 1502 1501 1505 1502 1477 1471 1456 1462 1474 1471 1478 1479 1484 1483 1484 1485 1483 1478 1478 1476 1481 1480 1490 1482 1484 1486 1491 1503
1467 1468 1469 1470 1472 1474 1475 1477 1478 1480 1482 1483 1486 1488 1489 1491 1494 1494 1499 1498 1499 1502 1505 1458 1456 1453 1450 1461 1459 1462 1468 1475 1475 1478 1479 1476 1472 1476 1478 1476 1477 1484 1479 1483 1485 1492 1491
1461 1463 1464 1466 1467 1469 1470 1472 1474 1476 1479 1480 1482 1484 1485 1488 1490 1489 1495 1497 1498 1503 1496 1458 1451 1449 1452 1459 1456 1456 1460 1469 1473 1476 1473 1470 1468 1468 1470 1467 1470 1474 1481 1485 1488 1495 1512
1454 1456 1458 1460 1461 1463 1465 1467 1469 1472 1475 1476 1478 1481 1482 1484 1486 1488 1491 1494 1501 1492 1465 1452 1447 1446 1448 1453 1457 1458 1460 1464 1470 1479 1472 1470 1463 1464 1467 1471 1470 1476 1490 1516 1519 1517 1509
1448 1450 1452 1454 1455 1457 1459 1462 1464 1467 1470 1472 1475 1477 1478 1478 1483 1486 1486 1486 1481 1463 1457 1445 1444 1442 1448 1447 1451 1456 1456 1464 1464 1467 1469 1474 1471 1462 1460 1464 1475 1479 1487 1511 1509 1510 1500
1441 1443 1445 1447 1449 1451 1453 1455 1459 1462 1465 1468 1471 1472 1472 1473 1479 1481 1481 1471 1461 1454 1452 1451 1456 1454 1444 1443 1448 1452 1454 1461 1459 1460 1469 1470 1462 1448 1451 1456 1463 1477 1485 1480 1491 1491 1501
1435 1436 1439 1441 1443 1445 1447 1448 1452 1456 1460 1463 1464 1465 1461 1470 1475 1476 1474 1464 1456 1448 1447 1448 1463 1458 1451 1443 1448 1450 1453 1446 1453 1453 1451 1460 1473 1451 1449 1449 1456 1463 1468 1487 1494 1502 1504
1426 1429 1431 1434 1436 1438 1441 1443 1446 1450 1454 1458 1457 1456 1451 1462 1470 1473 1464 1461 1453 1447 1449 1452 1452 1456 1448 1448 1449 1459 1448 1444 1444 1444 1447 1449 1460 1462 1453 1458 1460 1469 1470 1473 1480 1488 1502
1418 1420 1423 1426 1429 1432 1434 1437 1440 1444 1449 1451 1449 1444 1444 1454 1463 1459 1456 1454 1446 1445 1446 1447 1445 1447 1448 1448 1444 1450 1458 1449 1443 1447 1444 1443 1453 1465 1460 1452 1454 1457 1463 1469 1494 1487 1487
1408 1411 1414 1417 1421 1424 1427 1430 1434 1438 1443 1445 1440 1439 1440 1443 1442 1450 1448 1447 1447 1442 1443 1442 1443 1447 1446 1448 1449 1438 1443 1447 1444 1446 1453 1447 1460 1465 1459 1462 1457 1459 1457 1460 1468 1478 1485
1398 1401 1405 1409 1412 1415 1419 1422 1425 1430 1436 1441 1436 1432 1432 1428 1428 1434 1438 1437 1438 1437 1443 1441 1440 1445 1447 1448 1442 1444 1449 1446 1448 1442 1451 1450 1447 1455 1461 1460 1459 1463 1459 1460 1468 1484 1482
1386 1390 1394 1399 1403 1407 1410 1414 1417 1422 1428 1436 1427 1423 1419 1415 1420 1425 1427 1427 1432 1437 1437 1438 1439 1438 1443 1449 1443 1443 1449 1450 1449 1449 1449 1451 1456 1460 1454 1452 1453 1455 1456 1459 1467 1468 1477
1372 1378 1382 1387 1392 1397 1401 1405 1409 1414 1421 1427 1418 1419 1416 1413 1415 1420 1422 1422 1421 1425 1430 1427 1434 1434 1440 1445 1445 1446 1448 1449 1451 1451 1451 1450 1460 1463 1468 1454 1454 1460 1456 1457 1463 1464 1464
1358 1363 1369 1375 1381 1386 1392 1396 1400 1406 1414 1414 1417 1414 1409 1406 1407 1412 1413 1404 1408 1415 1420 1423 1427 1433 1436 1436 1440 1441 1442 1445 1451 1454 1455 1456 1460 1466 1463 1452 1460 1471 1456 1460 1460 1457 1458
1344 1348 1354 1361 1369 1376 1382 1387 1392 1398 1404 1408 1410 1412 1412 1402 1404 1405 1405 1405 1408 1412 1417 1417 1422 1425 1427 1434 1438 1446 1444 1446 1451 1450 1455 1458 1460 1466 1470 1457 1465 1445 1444 1447 1451 1447 1450
1331 1336 1341 1349 1358 1366 1372 1378 1384 1390 1396 1401 1403 1408 1404 1397 1399 1403 1406 1404 1408 1412 1414 1417 1417 1425 1426 1428 1439 1445 1447 1451 1449 1448 1453 1455 1458 1467 1462 1464 1454 1440 1439 1443 1448 1447 1442
1319 1323 1330 1338 1348 1357 1364 1370 1377 1383 1389 1394 1397 1402 1405 1408 1399 1398 1401 1403 1402 1406 1411 1412 1416 1417 1425 1424 1431 1434 1437 1441 1445 1445 1445 1452 1452 1457 1465 1460 1459 1444 1429 1430 1435 1445 1435
1308 1313 1321 1329 1339 1349 1356 1364 1371 1377 1382 1387 1390 1397 1402 1405 1395 1402 1394 1397 1396 1399 1405 1410 1414 1420 1424 1424 1425 1425 1431 1425 1436 1437 1440 1445 1452 1449 1455 1453 1450 1431 1428 1428 1449 1451 1432
1298 1305 1314 1323 1333 1342 1350 1358 1364 1371 1376 1381 1385 1391 1396 1397 1394 1396 1391 1390 1393 1394 1399 1401 1413 1418 1418 1424 1425 1424 1427 1424 1431 1425 1429 1434 1441 1444 1449 1449 1449 1427 1427 1434 1433 1430 1431
1291 1299 1309 1319 1328 1337 1345 1353 1359 1365 1371 1376 1381 1386 1392 1396 1393 1393 1389 1389 1389 1388 1395 1394 1400 1405 1412 1421 1426 1428 1431 1424 1425 1431 1420 1437 1432 1438 1437 1437 1425 1426 1425 1425 1426 1428 1431